Weather History for Crestview, FL

Change the Weather History Date:

Friday, July 4, 2014

  Actual Average Record
Temperature  
Mean Temperature 78 °F -  
Max Temperature 90 °F - - ()
Min Temperature 66 °F - - ()
Cooling Degree Days 13    
Growing Degree Days 28 (Base 50)    
Moisture  
Dew Point 62 °F    
Average Humidity 59    
Maximum Humidity 89    
Minimum Humidity 37    
Precipitation  
Precipitation 0.00 in - - ()
Sea Level Pressure  
Sea Level Pressure 30.12 in    
Wind  
Wind Speed 5 mph (NNW)    
Max Wind Speed 12 mph    
Max Gust Speed 17 mph    
Visibility 10 miles    
Events      
T = Trace of Precipitation, MM = Missing Value Source: NWS Daily Summary

Daily Weather History Graph

Daily Weather History Graph

Search for Another Location

Airport:

Trip Planner

Search our weather history database for the weather conditions in past years. The results will help you decide how hot, cold, wet, or windy it might be!

Date:

Astronomy

Jul. 04, 2014 Rise Set
Actual Time 5:48 AM CDT 7:52 PM CDT
Civil Twilight 5:20 AM CDT 8:20 PM CDT
Nautical Twilight 4:47 AM CDT 8:53 PM CDT
Astronomical Twilight 4:11 AM CDT 9:29 PM CDT
Moon 12:14 PM CDT (7/4) No Moon Set
Length of Visible Light 14h 59m
Length of Day
14h 04m
Waxing Crescent, 42% of the Moon is Illuminated
Jul 4
Waxing Crescent
Jul 5
First Quarter
Jul 12
Full
Jul 18
Last Quarter
Jul 26
New

Hourly Weather History & Observations

Time (CDT) Temp. Heat Index Dew Point Humidity Pressure Visibility Wind Dir Wind Speed Gust Speed Precip Events Conditions
12:58 AM 73.8 °F - 65.7 °F 76% 30.09 in 10.0 mi NW 4.6 mph - N/A   Clear
1:58 AM 72.3 °F - 64.9 °F 78% 30.09 in 10.0 mi NNW 5.8 mph - N/A   Clear
2:58 AM 70.9 °F - 63.1 °F 76% 30.09 in 10.0 mi NW 4.6 mph - N/A   Clear
3:58 AM 68.4 °F - 62.4 °F 81% 30.09 in 10.0 mi NNW 4.6 mph - N/A   Clear
4:58 AM 68.0 °F - 62.8 °F 83% 30.09 in 10.0 mi North 4.6 mph - N/A   Clear
5:58 AM 66.0 °F - 62.6 °F 89% 30.12 in 10.0 mi NNE 2.3 mph - N/A   Clear
6:58 AM 69.4 °F - 63.1 °F 80% 30.14 in 10.0 mi NNE 3.5 mph - N/A   Clear
7:58 AM 73.8 °F - 63.1 °F 69% 30.15 in 10.0 mi Variable 4.6 mph - N/A   Clear
8:58 AM 77.9 °F - 62.4 °F 59% 30.14 in 10.0 mi North 6.9 mph - N/A   Clear
9:58 AM 82.4 °F 83.5 °F 63.0 °F 52% 30.15 in 10.0 mi Variable 6.9 mph - N/A   Clear
10:58 AM 83.8 °F 84.5 °F 62.4 °F 48% 30.17 in 10.0 mi Variable 1.2 mph - N/A   Clear
11:58 AM 85.3 °F 85.0 °F 59.5 °F 42% 30.15 in 10.0 mi NW 8.1 mph - N/A   Clear
12:58 PM 86.7 °F 86.5 °F 60.4 °F 41% 30.14 in 10.0 mi West 9.2 mph - N/A   Partly Cloudy
1:55 PM 87.8 °F 87.6 °F 60.4 °F 40% 30.12 in 10.0 mi WNW 5.8 mph - N/A   Scattered Clouds
2:55 PM 88.9 °F 88.3 °F 59.5 °F 37% 30.12 in 10.0 mi NW 8.1 mph 17.3 mph N/A   Scattered Clouds
3:55 PM 90.0 °F 89.7 °F 60.3 °F 37% 30.11 in 10.0 mi NW 11.5 mph 16.1 mph N/A   Scattered Clouds
4:58 PM 90.0 °F 90.0 °F 61.3 °F 38% 30.09 in 10.0 mi North 10.4 mph - N/A   Clear
5:58 PM 89.1 °F 89.6 °F 62.6 °F 41% 30.09 in 10.0 mi NNW 8.1 mph - N/A   Clear
6:58 PM 86.5 °F 86.5 °F 61.2 °F 42% 30.09 in 10.0 mi North 9.2 mph - N/A   Clear
7:58 PM 80.8 °F 81.5 °F 60.8 °F 50% 30.11 in 10.0 mi NNW 3.5 mph - N/A   Clear
8:58 PM 75.7 °F - 61.2 °F 60% 30.12 in 10.0 mi North 6.9 mph - N/A   Clear
9:58 PM 73.6 °F - 61.0 °F 65% 30.12 in 10.0 mi North 5.8 mph - N/A   Clear
10:58 PM 72.5 °F - 61.0 °F 67% 30.14 in 10.0 mi North 4.6 mph - N/A   Clear
11:58 PM 69.4 °F - 61.0 °F 74% 30.14 in 10.0 mi Calm Calm - N/A   Clear